GW4039 Weather Reports


time (UTC)temp
C
wind
direction
speed
KPH
gust
KPH
rain 1hr
cm
rain 24hr
cm
rain mn
cm
humidity
%
barometer
mb
20260510073335 -17 183 0.0 1.6 0.13 0.20 0.20 1010.1
20260510072831 -17 189 0.0 0.0 0.13 0.20 0.20 1010.6
20260510072328 -17 189 3.2 3.2 0.00 0.18 0.18 1010.7
20260510071824 -17 195 1.6 3.2 0.00 0.18 0.18 1010.6
20260510071320 -17 213 1.6 1.6 0.00 0.18 0.18 1010.5
20260510070820 -17 209 1.6 1.6 0.00 0.18 0.18 1010.7
20260510070311 -17 222 1.6 1.6 0.00 0.18 0.18 1010.6
20260510065810 -17 216 1.6 1.6 0.00 0.18 0.18 1011.0
20260510065308 -17 207 1.6 1.6 0.18 0.18 0.18 1010.7
20260510064804 -17 211 0.0 1.6 0.30 0.18 0.18 1010.6
20260510064302 -17 192 3.2 3.2 0.30 0.15 0.15 1010.6
20260510063757 -17 172 3.2 4.8 0.18 0.13 0.13 1010.9
20260510063254 -17 163 6.4 6.4 0.13 0.10 0.10 1010.9
20260510062750 -17 174 3.2 6.4 0.30 0.10 0.10 1010.9
20260510062246 -17 231 3.2 3.2 0.18 0.08 0.08 1011.1
20260510061742 -17 222 4.8 6.4 0.00 0.05 0.05 1011.0
20260510061239 -17 208 1.6 1.6 0.18 0.05 0.05 1010.8
20260510060735 -17 233 3.2 3.2 0.18 0.05 0.05 1010.8
20260510060232 -17 239 3.2 4.8 0.00 0.03 0.03 1010.7
20260510055729 -17 194 1.6 1.6 0.00 0.03 0.03 1010.7
20260510055227 -17 217 3.2 3.2 0.00 0.03 0.03 1010.7
20260510054727 -17 217 6.4 9.7 0.13 0.03 0.03 1010.7
20260510054223 -17 203 3.2 4.8 0.13 0.03 0.03 1010.5
20260510053722 -17 261 3.2 4.8 0.00 0.00 0.00 1010.6
20260510053219 -17 179 1.6 3.2 0.00 0.00 0.00 1010.6
20260510052715 -17 222 1.6 1.6 0.00 0.00 0.00 1010.6
20260510052211 -17 191 3.2 4.8 0.00 0.00 0.00 1010.4
20260510051707 -17 197 1.6 3.2 0.00 0.00 0.00 1010.4
20260510051204 -17 199 0.0 1.6 0.00 0.00 0.00 1010.5
20260510050701 -17 191 0.0 1.6 0.00 0.00 0.00 1010.5
20260510050158 -17 198 1.6 1.6 0.00 0.00 0.00 1010.5
20260510045655 -17 213 4.8 6.4 0.00 0.00 0.00 1010.6
20260510045152 -17 192 1.6 3.2 0.00 0.00 0.00 1010.7
20260510044648 -17 205 1.6 1.6 0.00 0.00 0.00 1010.6
20260510044145 -17 182 1.6 1.6 0.00 0.00 0.00 1010.6
20260510043641 -17 178 3.2 4.8 0.00 0.00 0.00 1011.0
20260510043137 -17 203 1.6 3.2 0.00 0.00 0.00 1010.7
20260510042635 -17 206 1.6 3.2 0.00 0.00 0.00 1010.7
20260510042131 -17 212 0.0 1.6 0.00 0.00 0.00 1010.7
20260510041628 -17 208 4.8 4.8 0.00 0.00 0.00 1010.6
20260510041125 -17 194 4.8 6.4 0.00 0.00 0.00 1010.6
20260510040623 -17 220 4.8 6.4 0.00 0.00 0.00 1010.7
20260510040119 -17 236 3.2 4.8 0.00 0.05 0.05 1010.7
20260510035615 -17 270 3.2 4.8 0.00 0.05 0.05 1011.0
20260510035115 -17 237 1.6 1.6 0.00 0.05 0.05 1010.7
20260510034612 -17 228 3.2 3.2 0.00 0.05 0.05 1010.5
20260510034109 -17 238 3.2 3.2 0.00 0.05 0.05 1010.2
20260510033606 -17 203 0.0 0.0 0.00 0.05 0.05 1010.3
20260510033103 -17 214 0.0 0.0 0.00 0.05 0.05 1010.2
20260510032559 -17 169 1.6 1.6 0.00 0.05 0.05 1010.3
20260510032055 -17 174 3.2 3.2 0.00 0.05 0.05 1010.5
20260510031550 -17 192 0.0 0.0 0.00 0.05 0.05 1010.5
20260510031046 -17 173 4.8 4.8 0.00 0.05 0.05 1010.4
20260510030541 -17 169 4.8 4.8 0.00 0.05 0.05 1010.7
20260510030039 -17 193 0.0 1.6 0.00 0.05 0.05 1010.8
20260510025536 -17 203 0.0 1.6 0.00 0.05 0.05 1010.9
20260510025034 -17 200 0.0 0.0 0.00 0.05 0.05 1010.8
20260510024530 -17 191 0.0 1.6 0.00 0.05 0.05 1010.7
20260510024026 -17 166 4.8 4.8 0.00 0.05 0.05 1010.6
20260510023522 -17 208 0.0 0.0 0.00 0.05 0.05 1010.6
20260510023021 -17 190 1.6 1.6 0.00 0.05 0.05 1010.8
20260510022520 -17 200 0.0 0.0 0.00 0.05 0.05 1011.0
20260510022020 -17 220 0.0 0.0 0.00 0.05 0.05 1010.9
20260510021517 -17 218 0.0 0.0 0.00 0.05 0.05 1010.8
20260510021014 -17 217 0.0 0.0 0.00 0.05 0.05 1010.7
20260510020508 -17 217 0.0 0.0 0.00 0.05 0.05 1010.6
20260510020004 -17 217 0.0 0.0 0.00 0.05 0.05 1010.8
20260510015500 -17 217 0.0 0.0 0.00 0.05 0.05 1010.9
20260510014955 -17 217 0.0 0.0 0.00 0.05 0.05 1011.0
20260510014453 -17 217 0.0 0.0 0.00 0.05 0.05 1010.8
20260510013950 -17 217 0.0 0.0 0.00 0.05 0.05 1010.9
20260510013444 -17 217 0.0 0.0 0.00 0.05 0.05 1010.9
20260510012940 -17 217 0.0 0.0 0.00 0.05 0.05 1010.8
20260510012435 -17 217 0.0 0.0 0.00 0.05 0.05 1010.9
20260510011930 -17 228 0.0 0.0 0.00 0.05 0.05 1010.9
20260510011425 -17 228 0.0 0.0 0.00 0.05 0.05 1011.0
20260510010921 -17 228 0.0 0.0 0.00 0.05 0.05 1011.1
20260510010419 -17 218 0.0 0.0 0.00 0.05 0.05 1010.9
20260510005916 -17 204 0.0 0.0 0.00 0.05 0.05 1010.9
20260510005412 -17 203 1.6 1.6 0.00 0.05 0.05 1011.1
20260510004909 -17 185 0.0 0.0 0.00 0.05 0.05 1011.0
20260510004407 -17 181 3.2 3.2 0.00 0.05 0.05 1010.9
20260510003904 -17 181 3.2 3.2 0.00 0.05 0.05 1010.8
20260510003401 -17 191 1.6 1.6 0.00 0.05 0.05 1011.0
20260510002900 -17 203 0.0 0.0 0.00 0.05 0.05 1010.9
20260510002358 -17 220 0.0 0.0 0.00 0.05 0.05 1011.0
20260510001854 -17 220 0.0 0.0 0.00 0.05 0.05 1011.0
20260510001352 -17 221 0.0 0.0 0.00 0.05 0.05 1011.1
20260510000848 -17 234 3.2 3.2 0.00 0.05 0.05 1011.0
20260510000345 -17 217 0.0 0.0 0.00 0.05 0.05 1011.0
20260509235841 -17 217 0.0 0.0 0.00 0.05 0.05 1010.8
20260509235333 -17 216 0.0 0.0 0.00 0.05 0.05 1010.9
20260509234829 -17 217 1.6 1.6 0.00 0.05 0.05 1010.7
20260509234326 -17 200 1.6 1.6 0.00 0.05 0.05 1010.6
20260509233824 -17 244 1.6 3.2 0.00 0.05 0.05 1010.6
20260509233321 -17 221 1.6 3.2 0.00 0.05 0.05 1010.7
20260509232817 -17 215 0.0 1.6 0.00 0.05 0.05 1010.6
20260509232315 -17 207 0.0 0.0 0.00 0.05 0.05 1010.5
20260509231811 -17 212 1.6 1.6 0.00 0.05 0.05 1010.6
20260509231308 -17 224 0.0 0.0 0.00 0.05 0.05 1010.6
20260509230805 -17 221 0.0 1.6 0.00 0.05 0.05 1010.6
20260509230302 -17 228 1.6 1.6 0.00 0.05 0.05 1010.5
20260509225757 -17 217 0.0 0.0 0.00 0.05 0.05 1010.5
20260509225253 -17 218 1.6 1.6 0.00 0.05 0.05 1010.5
20260509224749 -17 195 0.0 0.0 0.00 0.05 0.05 1010.4
20260509224247 -17 193 0.0 0.0 0.00 0.05 0.05 1010.5
20260509223743 -17 202 0.0 0.0 0.00 0.05 0.05 1010.6
20260509223240 -17 192 1.6 3.2 0.00 0.05 0.05 1010.6
20260509222737 -17 200 0.0 1.6 0.00 0.05 0.05 1010.7
20260509222232 -17 221 0.0 0.0 0.00 0.05 0.05 1010.6
20260509221728 -17 249 1.6 1.6 0.00 0.05 0.05 1010.8
20260509221225 -17 202 0.0 1.6 0.00 0.05 0.05 1010.8
20260509220720 -17 222 1.6 1.6 0.00 0.05 0.05 1010.9
20260509220217 -17 219 1.6 1.6 0.00 0.05 0.05 1010.9
20260509215712 -17 203 0.0 1.6 0.00 0.05 0.05 1011.0
20260509215209 -17 212 0.0 1.6 0.00 0.05 0.05 1011.1
20260509214707 -17 206 0.0 1.6 0.00 0.05 0.05 1010.9
20260509214204 -17 206 0.0 0.0 0.00 0.05 0.05 1010.9
20260509213701 -17 199 0.0 0.0 0.00 0.05 0.05 1011.2
20260509213156 -17 224 1.6 1.6 0.00 0.05 0.05 1011.1
20260509212654 -17 212 1.6 1.6 0.00 0.05 0.05 1011.3
20260509212151 -17 232 1.6 3.2 0.00 0.05 0.05 1011.1
20260509211646 -17 198 0.0 0.0 0.18 0.05 0.05 1011.4
20260509211144 -17 196 0.0 0.0 0.18 0.05 0.05 1011.4
20260509210641 -17 201 1.6 1.6 0.00 0.03 0.03 1011.3
20260509210137 -17 210 1.6 1.6 0.00 0.03 0.03 1011.5
20260509205632 -17 181 0.0 1.6 0.00 0.03 0.03 1011.3
20260509205127 -17 166 4.8 4.8 0.00 0.03 0.03 1011.5
20260509204623 -17 192 1.6 1.6 0.00 0.03 0.03 1011.4
20260509204120 -17 170 1.6 3.2 0.00 0.03 0.03 1011.5
20260509203616 -17 196 1.6 1.6 0.00 0.03 0.03 1011.4
20260509203115 -17 192 1.6 1.6 0.00 0.03 0.03 1011.6
20260509202614 -17 187 0.0 1.6 0.00 0.03 0.03 1011.5
20260509202104 -17 185 3.2 4.8 0.00 0.03 0.03 1011.6
20260509201605 -17 193 0.0 0.0 0.00 0.03 0.03 1011.7
20260509201103 -17 181 1.6 1.6 0.00 0.03 0.03 1011.7
20260509200602 -17 188 0.0 1.6 0.00 0.03 0.03 1011.7
20260509200058 -17 216 0.0 1.6 0.00 0.03 0.03 1011.6
20260509195554 -17 179 0.0 1.6 0.00 0.03 0.03 1012.0
20260509195049 -17 182 0.0 0.0 0.00 0.03 0.03 1011.7
20260509194549 -17 178 0.0 0.0 0.00 0.03 0.03 1011.9
20260509194047 -17 174 1.6 1.6 0.00 0.03 0.03 1011.8
20260509193542 -17 176 0.0 0.0 0.00 0.03 0.03 1011.9
20260509193039 -17 189 3.2 3.2 0.00 0.03 0.03 1012.1
20260509192536 -17 190 1.6 3.2 0.00 0.03 0.03 1012.0
20260509192031 -17 185 0.0 1.6 0.00 0.03 0.03 1012.1
20260509191531 -17 200 0.0 0.0 0.00 0.03 0.03 1011.8
20260509191027 -17 183 0.0 0.0 0.00 0.03 0.03 1012.0
20260509190524 -17 187 1.6 1.6 0.00 0.03 0.03 1012.2
20260509190022 -17 183 0.0 0.0 0.00 0.03 0.03 1012.0
20260509185519 -17 189 0.0 0.0 0.00 0.03 0.03 1012.3
20260509185015 -17 169 0.0 0.0 0.00 0.03 0.03 1012.1
20260509184514 -17 162 0.0 0.0 0.00 0.03 0.03 1012.3
20260509184009 -17 158 0.0 0.0 0.00 0.03 0.03 1012.4
20260509183505 -17 198 0.0 0.0 0.00 0.03 0.03 1012.4
20260509183001 -17 203 0.0 0.0 0.00 0.03 0.03 1012.3
20260509182458 -17 164 0.0 0.0 0.00 0.03 0.03 1012.3
20260509181955 -17 179 1.6 1.6 0.00 0.03 0.03 1012.4
20260509181453 -17 163 0.0 0.0 0.00 0.03 0.03 1012.3
20260509180950 -17 192 0.0 0.0 0.00 0.03 0.03 1012.5
20260509180445 -17 174 0.0 0.0 0.00 0.03 0.03 1012.4
20260509175942 -17 229 0.0 0.0 0.00 0.03 0.03 1012.3
20260509175438 -17 229 0.0 0.0 0.00 0.03 0.03 1012.4
20260509174930 -17 229 0.0 0.0 0.00 0.03 0.03 1012.6
20260509174426 -17 269 1.6 1.6 0.00 0.03 0.03 1012.6
20260509173922 -17 228 0.0 1.6 0.00 0.03 0.03 1012.8
20260509173421 -17 228 0.0 1.6 0.00 0.03 0.03 1012.8
20260509172918 -17 226 1.6 1.6 0.00 0.03 0.03 1012.6
20260509172415 -17 231 1.6 1.6 0.00 0.03 0.03 1012.8
20260509171911 -17 320 1.6 1.6 0.00 0.03 0.03 1012.8
20260509171407 -17 232 1.6 1.6 0.00 0.03 0.03 1012.8
20260509170903 -17 221 0.0 0.0 0.00 0.03 0.03 1012.8
20260509170359 -17 190 1.6 1.6 0.00 0.03 0.03 1013.0
20260509165855 -17 202 1.6 3.2 0.00 0.03 0.03 1013.0
20260509165349 -17 213 1.6 1.6 0.00 0.03 0.03 1013.0
20260509164844 -17 158 3.2 3.2 0.13 0.03 0.03 1013.1
20260509164340 -17 211 0.0 0.0 0.13 0.03 0.03 1013.1
20260509163837 -17 197 0.0 0.0 0.00 0.00 0.00 1013.4
20260509163334 -17 197 0.0 0.0 0.00 0.00 0.00 1013.2
20260509162833 -17 201 0.0 0.0 0.00 0.00 0.00 1013.5
20260509162331 -17 194 1.6 1.6 0.00 0.00 0.00 1013.4
20260509161828 -17 236 1.6 3.2 0.00 0.00 0.00 1013.4
20260509161325 -17 207 1.6 1.6 0.00 0.00 0.00 1013.6
20260509160820 -17 212 0.0 1.6 0.00 0.00 0.00 1013.7
20260509160316 -17 201 0.0 1.6 0.00 0.00 0.00 1013.8
20260509155812 -17 193 1.6 3.2 0.00 0.00 0.00 1013.9
20260509155308 -17 213 3.2 3.2 0.00 0.00 0.00 1013.7
20260509154804 -17 194 1.6 3.2 0.00 0.00 0.00 1013.8
20260509154301 -17 221 1.6 1.6 0.00 0.00 0.00 1013.7
20260509153758 -17 209 1.6 1.6 0.00 0.00 0.00 1013.8
20260509153254 -17 161 6.4 6.4 0.00 0.00 0.00 1013.8
20260509152751 -17 190 1.6 3.2 0.00 0.00 0.00 1013.9
20260509152247 -17 198 3.2 4.8 0.00 0.00 0.00 1013.9
20260509151745 -17 200 1.6 3.2 0.00 0.00 0.00 1014.2
20260509151242 -17 209 3.2 3.2 0.00 0.00 0.00 1014.1
20260509150740 -17 188 4.8 4.8 0.00 0.00 0.00 1014.1
20260509150238 -17 208 0.0 1.6 0.00 0.00 0.00 1014.0
20260509145735 -17 200 1.6 3.2 0.00 0.00 0.00 1014.1
20260509145234 -17 173 3.2 3.2 0.00 0.00 0.00 1014.0
20260509144732 -17 171 3.2 3.2 0.00 0.00 0.00 1014.0
20260509144228 -17 188 3.2 4.8 0.00 0.00 0.00 1014.1
20260509143725 -17 201 4.8 4.8 0.00 0.00 0.00 1013.9
20260509143223 -17 197 6.4 6.4 0.00 0.00 0.00 1013.9
20260509142718 -17 209 6.4 9.7 0.00 0.00 0.00 1014.1
20260509142215 -17 205 3.2 3.2 0.00 0.00 0.00 1014.0
20260509141711 -17 193 3.2 3.2 0.00 0.00 0.00 1014.1
20260509141208 -17 190 4.8 4.8 0.00 0.00 0.00 1014.1
20260509140704 -17 192 1.6 1.6 0.00 0.00 0.00 1013.9
20260509140202 -17 185 0.0 1.6 0.00 0.00 0.00 1014.0
20260509135659 -17 190 3.2 4.8 0.00 0.00 0.00 1014.1
20260509135157 -17 192 1.6 1.6 0.00 0.00 0.00 1014.2
20260509134653 -17 194 4.8 4.8 0.00 0.00 0.00 1014.1
20260509134151 -17 199 4.8 4.8 0.00 0.00 0.00 1014.0
20260509133648 -17 232 1.6 1.6 0.00 0.00 0.00 1013.9
20260509133145 -17 217 1.6 1.6 0.00 0.00 0.00 1014.0
20260509132643 -17 206 1.6 1.6 0.00 0.00 0.00 1014.2
20260509132141 -17 182 4.8 4.8 0.00 0.00 0.00 1014.2
20260509131637 -17 159 3.2 3.2 0.00 0.00 0.00 1014.3
20260509131134 -17 168 3.2 3.2 0.00 0.00 0.00 1014.4
20260509130630 -17 184 1.6 1.6 0.00 0.00 0.00 1014.3
20260509130127 -17 173 1.6 1.6 0.00 0.00 0.00 1014.4
20260509125623 -17 184 3.2 4.8 0.00 0.00 0.00 1014.3
20260509125120 -17 170 3.2 3.2 0.00 0.00 0.00 1014.5
20260509124616 -17 176 1.6 1.6 0.00 0.00 0.00 1014.4
20260509124114 -17 166 0.0 1.6 0.00 0.00 0.00 1014.4
20260509123612 -17 175 0.0 0.0 0.00 0.00 0.00 1014.4
20260509123108 -17 185 1.6 1.6 0.00 0.00 0.00 1014.5
20260509122604 -17 167 1.6 3.2 0.00 0.00 0.00 1014.7
20260509122102 -17 189 0.0 0.0 0.00 0.00 0.00 1014.6
20260509121558 -17 191 0.0 0.0 0.00 0.00 0.00 1014.6
20260509121056 -17 169 1.6 3.2 0.00 0.00 0.00 1014.6
20260509120554 -17 178 0.0 0.0 0.00 0.00 0.00 1014.7
20260509120052 -17 185 1.6 1.6 0.00 0.00 0.00 1014.9
20260509115548 -17 175 0.0 1.6 0.00 0.00 0.00 1014.8
20260509115046 -17 190 0.0 0.0 0.00 0.00 0.00 1014.9
20260509114544 -17 177 3.2 3.2 0.00 0.00 0.00 1014.9
20260509114043 -17 167 0.0 0.0 0.00 0.00 0.00 1014.7
20260509113540 -17 174 1.6 3.2 0.00 0.00 0.00 1014.8
20260509113038 -17 183 3.2 4.8 0.00 0.00 0.00 1015.1
20260509112534 -17 192 0.0 0.0 0.00 0.00 0.00 1014.7
20260509112031 -17 221 0.0 0.0 0.00 0.00 0.00 1014.7
20260509111528 -17 228 0.0 0.0 0.00 0.00 0.00 1014.9
20260509111025 -17 171 1.6 1.6 0.00 0.00 0.00 1014.8
20260509110522 -17 161 3.2 3.2 0.00 0.00 0.00 1015.1
20260509110019 -17 209 0.0 0.0 0.00 0.00 0.00 1015.0
20260509105518 -17 242 0.0 0.0 0.00 0.00 0.00 1014.9
20260509105015 -17 243 0.0 1.6 0.00 0.00 0.00 1014.9
20260509104512 -17 242 1.6 1.6 0.00 0.00 0.00 1015.0
20260509104009 -17 243 0.0 1.6 0.00 0.00 0.00 1014.9
20260509103507 -17 292 0.0 0.0 0.00 0.00 0.00 1014.6
20260509103004 -17 245 0.0 0.0 0.00 0.00 0.00 1014.8
20260509102502 -17 242 0.0 0.0 0.00 0.00 0.00 1014.8
20260509101958 -17 242 0.0 0.0 0.00 0.00 0.00 1014.6
20260509101454 -17 242 1.6 1.6 0.00 0.00 0.00 1014.8
20260509100951 -17 242 0.0 1.6 0.00 0.00 0.00 1014.7
20260509100448 -17 242 1.6 1.6 0.00 0.00 0.00 1014.8
20260509095945 -17 242 0.0 0.0 0.00 0.00 0.00 1014.7
20260509095442 -17 242 0.0 0.0 0.00 0.00 0.00 1014.7
20260509094939 -17 242 0.0 1.6 0.00 0.00 0.00 1014.9
20260509094435 -17 242 0.0 1.6 0.00 0.00 0.00 1014.7
20260509093933 -17 242 1.6 1.6 0.00 0.00 0.00 1014.7
20260509093431 -17 242 0.0 1.6 0.00 0.00 0.00 1014.6
20260509092929 -17 242 1.6 1.6 0.00 0.00 0.00 1014.8
20260509092426 -17 243 0.0 0.0 0.00 0.00 0.00 1014.7
20260509091925 -17 246 1.6 1.6 0.00 0.00 0.00 1014.7
20260509091421 -17 242 1.6 1.6 0.00 0.00 0.00 1014.6
20260509090918 -17 241 0.0 1.6 0.00 0.00 0.00 1014.5
20260509090415 -17 241 1.6 1.6 0.00 0.00 0.00 1014.5
20260509085913 -17 241 0.0 0.0 0.00 0.00 0.00 1014.7
20260509085410 -17 241 0.0 0.0 0.00 0.00 0.00 1014.5
20260509084906 -17 241 0.0 0.0 0.00 0.00 0.00 1014.6
20260509084403 -17 241 0.0 0.0 0.00 0.00 0.00 1014.4
20260509083901 -17 241 0.0 0.0 0.00 0.00 0.00 1014.6
20260509083358 -17 241 0.0 0.0 0.00 0.00 0.00 1014.5
20260509082854 -17 241 0.0 0.0 0.00 0.00 0.00 1014.4
20260509082351 -17 241 0.0 0.0 0.00 0.00 0.00 1014.3
20260509081848 -17 241 0.0 0.0 0.00 0.00 0.00 1014.3
20260509081345 -17 241 0.0 0.0 0.00 0.00 0.00 1014.3
20260509080843 -17 241 0.0 0.0 0.00 0.00 0.00 1014.3
20260509080341 -17 241 0.0 0.0 0.00 0.00 0.00 1014.5
20260509075839 -17 273 0.0 0.0 0.00 0.00 0.00 1014.7
20260509075336 -17 239 0.0 0.0 0.00 0.00 0.00 1014.5
20260509074833 -17 239 0.0 0.0 0.00 0.00 0.00 1014.6
20260509074331 -17 239 0.0 0.0 0.00 0.00 0.00 1014.5
20260509073826 -17 240 0.0 1.6 0.00 0.00 0.00 1014.4